Погода в Победе

Россия / Хабаровский край     49°03′40″N   134°19′36″E
темп.,
°C
ветер,
м/с
пор.,
м/с
влажн.,
%
обл.,
%
осадки,
мм/ч
давл.,
гПа
погр.,
м
17 мая, пн
пн1701:00+10св11740 0.0 100110
04:00+9св00760 0.0 100110
07:00+11зюз11730 0.0 100143
10:00+17юз23500 0.0 1001527
13:00+22юз47360 0.0 10011325
16:00+23юз68291 0.0 9992751
19:00+21ююз37435 0.0 999219
22:00+15юв125761 0.0 100018
18 мая, вт
вт1801:00+12в11625 0.0 100015
04:00+11ююв22715 0.0 100014
07:00+13ю26746 0.0 1000195
10:00+19юз585274 0.0 1000767
13:00+22юз4544100 0.0 10001076
16:00+25зюз6133796 0.0 9992010
19:00+24юз51342100 0.0 997598
22:00+15ссв247772 0.3 100183
19 мая, ср
ср1901:00+13ссз1186100 0.6 100212
04:00+12с2286100 0.6 100211
07:00+13св2583100 0.0 1003129
10:00+14св3475100 1.6 1004356
13:00+16зюз016791 0.0 1004536
16:00+20зюз35516 0.0 10041517
19:00+20ююз23582 0.0 1004404
22:00+15вюв11715 0.0 100511
20 мая, чт
чт2001:00+13в11775 0.0 100611
04:00+12всв22850 0.0 100516
07:00+14св23823 0.0 1005111
10:00+20ю356398 0.0 1003777
13:00+24зюз685238 0.0 10021349
16:00+27зюз5104239 0.0 10012450
19:00+16с41287100 5.3 1003322
22:00+16сз228993 8.8 100336
21 мая, пт
пт2101:00+15зюз12909 1.3 100413
04:00+14зсз23913 1.4 100444
07:00+15зсз24770 0.0 1006108
10:00+20сз35410 0.0 1007430
13:00+23сз34310 0.0 10071298
16:00+25сз34310 0.0 10061545
19:00+22ссз23460 0.0 100578
22:00+16ссв224122 0.0 100614